Wind_Speed
18 23 26 23 23 23 21 22 23 20 22 19 23 28 20 26 24 25 19 28 28 38 34 31 31 29 29 25 23 23 23 21 20 19 16 16 15 17 12 10 8 7 8 5
18 28 22 18 20 22 24 23 21 21 19 21 21 22 24 24 33 30 23 29 28 30 37 36 36 33 32 24 23 23 24 21 20 19 18 17 15 14 10 11 7 7 5 5
26 13 21 23 22 23 23 24 21 19 16 22 19 20 29 19 34 40 28 27 31 33 36 39 39 36 32 26 25 24 24 21 21 20 20 20 20 17 13 14 14 9 6 5
25 23 17 23 27 23 25 20 23 22 21 23 24 17 24 22 27 21 28 28 32 35 36 37 36 36 33 27 26 25 24 23 23 22 21 20 19 20 15 10 10 10 8 6
22 24 26 26 21 25 25 20 19 21 25 24 30 24 21 33 27 29 28 37 34 37 36 35 29 30 30 27 25 25 25 24 26 24 22 21 20 18 14 15 12 12 9 8
17 18 22 26 26 21 22 23 22 23 24 24 31 31 28 31 32 24 27 39 35 36 39 35 24 28 30 29 26 26 26 26 27 27 25 23 21 20 18 15 17 13 10 9
16 21 20 16 22 27 23 20 22 19 18 19 29 33 30 21 33 29 25 46 40 36 37 39 30 29 28 26 22 24 26 27 28 27 27 25 23 22 19 18 19 15 13 13
16 15 23 26 22 21 28 27 26 17 15 20 30 32 34 33 29 29 21 37 29 36 33 36 30 20 18 20 18 20 23 26 27 29 28 26 26 25 22 20 18 18 13 10
10 18 12 17 24 23 26 33 31 32 32 23 30 28 30 25 28 26 36 41 44 35 36 34 35 25 21 21 17 17 14 24 27 28 29 29 28 28 27 23 21 20 16 14
7 18 14 10 14 17 23 27 27 33 21 24 26 31 27 28 28 29 26 25 24 30 41 34 33 31 27 23 21 20 19 16 24 27 28 30 29 29 29 27 24 23 19 18
10 12 21 16 16 18 22 25 28 26 32 18 16 27 23 21 33 33 32 27 25 35 44 26 39 35 28 28 28 23 21 18 22 28 29 29 31 31 32 30 28 26 23 20
8 12 18 23 22 21 21 27 26 29 25 27 30 33 28 10 13 33 32 27 28 14 21 41 44 45 33 31 27 28 24 19 16 24 27 28 30 32 33 33 31 29 27 24
7 12 21 22 23 22 26 26 29 29 34 35 23 26 38 24 18 19 26 27 26 23 19 20 41 53 36 30 26 26 27 23 18 20 26 27 29 33 34 35 33 32 29 27
14 18 21 25 20 16 14 21 28 28 34 30 38 34 27 28 13 7 4 17 20 26 23 21 22 40 38 29 24 24 27 28 25 21 17 26 27 28 33 34 34 33 31 29
14 21 23 28 28 23 22 22 20 23 35 35 32 34 36 21 12 6 7 10 12 25 23 32 31 34 39 32 28 23 25 31 30 27 21 16 22 26 29 33 33 33 32 30
15 22 21 28 26 26 26 25 26 25 25 34 35 37 32 22 22 25 10 8 5 15 17 22 24 29 28 38 30 25 24 30 31 30 26 23 19 23 27 30 33 34 34 31
16 18 17 27 24 24 30 28 24 28 27 27 31 32 31 23 15 13 22 9 6 4 16 19 20 18 18 43 40 33 26 25 30 30 30 27 23 21 22 27 31 33 34 33
23 22 19 17 16 17 28 24 26 30 34 28 29 32 31 26 16 22 16 24 14 6 15 27 32 32 22 10 38 24 27 22 27 29 31 31 29 24 21 25 29 31 32 34
24 25 22 16 16 22 23 18 10 10 18 25 23 33 35 33 28 23 26 25 27 19 13 23 26 33 34 28 24 25 25 25 25 28 29 30 31 31 28 24 25 30 31 32
23 26 27 19 16 11 25 15 9 11 16 17 14 16 21 29 37 33 21 28 34 28 14 17 25 31 27 31 33 29 32 31 29 30 31 31 32 34 34 30 26 21 27 29
11 24 26 23 21 24 18 16 15 14 11 18 23 27 9 8 5 20 42 39 28 22 28 29 18 22 25 27 30 35 38 37 30 30 33 36 34 31 32 32 32 28 24 25
12 9 19 17 17 19 9 13 11 16 17 22 23 21 17 11 9 14 17 29 41 31 31 31 25 23 20 23 30 31 36 39 35 36 34 39 39 38 35 34 33 32 31 30
4 6 6 8 11 12 20 22 22 26 30 25 28 29 25 24 23 27 29 39 43 43 43 37 31 29 27 22 28 33 33 36 40 39 36 34 37 41 41 39 37 35 35 34
9 16 20 23 16 18 20 26 29 32 32 29 31 32 35 33 28 35 39 35 40 44 43 38 33 33 33 28 26 33 34 37 41 42 39 33 32 36 42 44 41 39 38 36
12 14 13 21 32 32 35 37 40 38 36 36 32 29 35 37 35 34 36 34 38 39 43 41 38 38 38 32 30 32 30 33 37 44 44 39 35 35 37 44 45 41 42 38
13 21 16 11 9 14 17 18 21 29 32 25 24 25 26 34 38 38 32 30 32 35 39 38 38 40 41 38 35 33 35 33 37 40 45 43 40 37 37 43 46 44 43 42
Wind_Direction
204 211 218 220 225 232 250 261 241 245 236 232 225 219 191 202 198 176 190 194 200 177 174 189 190 204 202 207 197 195 199 184 189 185 184 182 166 187 175 186 155 147 123 119
212 226 226 228 229 234 243 254 262 254 247 213 237 240 241 238 226 185 197 193 197 191 176 197 191 202 202 208 200 199 203 191 191 190 184 187 172 179 174 162 189 169 167 165
220 233 226 224 228 232 238 241 250 257 255 228 228 221 235 224 188 188 197 196 195 205 187 201 192 202 203 208 205 203 204 196 194 195 193 190 184 185 187 201 186 185 193 186
232 232 236 227 231 230 241 240 246 257 263 264 235 225 202 219 186 244 183 196 200 199 202 206 198 200 208 209 208 205 204 202 201 202 203 197 201 189 212 185 208 193 188 195
238 231 233 235 235 232 242 241 248 248 255 264 253 253 226 209 217 252 244 196 200 200 207 209 204 206 210 216 211 210 207 204 206 206 209 208 204 202 203 201 216 192 205 198
246 239 234 241 237 236 237 243 247 253 251 247 246 253 249 195 221 230 221 189 201 201 202 210 210 205 209 217 217 216 211 211 209 210 211 214 213 212 210 200 206 218 203 212
251 246 238 240 233 231 229 231 237 244 242 247 239 242 242 243 221 232 226 193 196 205 203 202 205 206 207 218 225 222 216 216 214 214 217 213 215 221 219 204 214 225 221 207
280 238 229 227 229 228 225 223 228 230 236 243 241 248 243 241 235 239 223 214 189 200 207 208 207 202 199 206 214 221 219 217 218 217 219 217 215 223 222 226 224 229 220 225
297 253 282 222 232 226 232 224 229 252 259 254 256 243 245 239 241 223 211 209 243 191 200 212 218 208 205 208 216 224 224 216 221 224 218 222 216 221 227 227 227 226 228 218
289 307 268 261 233 227 230 235 236 235 252 262 263 255 256 217 228 231 207 223 221 225 195 190 224 222 216 214 216 217 223 221 219 224 225 223 223 220 227 231 228 231 224 226
295 274 271 275 243 233 238 249 250 258 236 251 259 257 249 265 225 216 226 228 231 269 227 204 189 222 223 222 216 215 215 223 216 221 225 224 221 223 226 228 233 229 230 225
261 290 270 258 248 248 250 250 248 246 247 256 249 255 242 307 283 224 217 236 241 260 238 233 202 192 234 226 218 216 211 211 210 219 227 228 226 222 224 231 229 230 231 232
255 260 279 264 257 255 253 239 244 250 248 255 260 241 241 267 308 233 218 217 233 234 238 258 200 187 218 230 218 215 215 212 203 214 223 227 228 226 223 225 230 230 232 232
262 258 262 275 273 318 283 247 244 252 254 251 251 254 259 249 268 284 239 220 223 209 222 240 213 201 199 229 230 217 214 217 212 210 224 229 230 232 228 225 229 230 230 234
267 262 255 260 267 279 272 263 256 261 247 253 244 240 250 257 297 282 222 229 233 226 219 227 232 234 224 225 240 215 214 217 219 219 216 228 231 232 231 229 226 231 231 232
251 259 261 266 260 268 266 261 249 253 256 252 252 252 251 265 322 231 285 214 184 189 204 216 215 223 216 228 231 241 221 214 215 220 216 212 221 227 232 230 229 226 230 231
262 267 267 264 260 261 267 248 251 250 249 250 257 246 254 271 292 267 253 259 139 255 212 220 200 194 231 220 232 238 240 222 223 222 220 221 218 225 230 231 229 232 228 231
256 254 258 273 270 273 255 253 250 256 249 248 254 255 255 254 255 273 260 229 225 314 212 208 215 202 188 305 199 229 237 220 220 222 224 224 223 219 220 227 228 229 230 229
247 249 244 252 242 256 268 255 250 302 248 240 265 255 260 260 251 257 252 248 270 242 239 223 219 215 220 206 204 190 248 241 221 222 223 227 227 226 222 224 229 228 230 230
244 237 237 241 237 255 248 255 251 296 259 251 255 248 262 258 248 234 247 250 257 255 251 247 239 242 233 215 203 201 206 239 225 224 230 232 239 231 231 226 226 228 230 233
288 237 244 241 246 247 256 280 273 252 255 259 251 235 259 245 293 229 241 249 252 250 259 263 227 227 236 235 221 220 218 228 232 229 229 232 231 233 230 229 228 228 227 230
299 255 233 239 246 242 268 273 261 253 271 261 253 253 234 237 224 215 230 247 253 255 255 258 248 238 236 239 241 232 221 231 238 236 228 230 229 231 234 229 229 232 233 233
304 233 273 249 236 266 254 263 259 262 264 270 265 263 253 251 246 246 229 242 250 261 266 263 263 258 248 249 245 237 229 220 233 241 231 225 234 233 233 237 231 230 234 236
305 275 276 270 251 260 272 267 266 265 270 265 270 260 253 247 247 251 259 249 252 258 260 260 256 250 246 257 252 240 241 235 227 231 235 231 235 236 233 235 237 232 234 237
356 349 319 273 266 273 267 269 267 266 271 266 268 259 256 253 253 254 264 262 253 255 253 257 249 243 248 255 251 240 243 239 237 237 235 235 236 239 236 232 235 237 236 237
17 15 357 320 291 304 308 279 269 269 261 253 257 252 260 256 255 254 264 257 250 252 251 254 248 246 254 256 250 240 241 242 235 237 240 238 237 238 236 231 232 235 234 236
Height
3126 3129 3127 3131 3134 3136 3135 3133 3133 3133 3134 3137 3139 3134 3142 3152 3154 3152 3153 3160 3161 3165 3172 3177 3181 3182 3184 3186 3190 3194 3197 3201 3205 3209 3212 3214 3217 3219 3222 3223 3226 3229 3232 3231
3126 3122 3127 3131 3133 3134 3134 3133 3130 3129 3130 3132 3134 3134 3138 3136 3146 3148 3155 3160 3161 3165 3168 3172 3176 3178 3180 3183 3188 3192 3195 3200 3204 3209 3212 3214 3217 3220 3223 3223 3226 3229 3233 3233
3121 3121 3123 3128 3129 3131 3131 3131 3131 3130 3128 3128 3131 3127 3136 3134 3138 3144 3154 3158 3163 3161 3165 3167 3170 3174 3177 3180 3185 3190 3194 3198 3203 3207 3210 3213 3216 3219 3221 3223 3225 3228 3231 3233
3118 3121 3122 3123 3125 3128 3127 3129 3130 3130 3129 3124 3125 3126 3122 3137 3137 3121 3140 3154 3162 3162 3164 3164 3165 3169 3172 3176 3183 3188 3192 3196 3201 3205 3209 3212 3215 3218 3222 3225 3227 3229 3230 3232
3114 3117 3118 3119 3121 3125 3125 3128 3128 3129 3128 3126 3120 3120 3116 3121 3126 3125 3131 3148 3154 3160 3160 3158 3160 3166 3170 3173 3179 3185 3189 3194 3198 3203 3207 3211 3214 3218 3222 3223 3224 3228 3230 3231
3110 3111 3114 3116 3119 3121 3125 3126 3126 3126 3124 3120 3120 3120 3118 3116 3117 3126 3126 3134 3145 3152 3156 3156 3158 3163 3167 3170 3175 3180 3186 3191 3195 3199 3204 3209 3212 3216 3218 3222 3223 3226 3229 3231
3108 3108 3110 3112 3114 3117 3120 3123 3123 3122 3118 3106 3114 3116 3116 3118 3116 3115 3131 3133 3139 3143 3151 3152 3153 3157 3162 3166 3171 3176 3181 3186 3192 3196 3200 3206 3210 3213 3217 3219 3221 3225 3227 3229
3104 3102 3104 3108 3110 3113 3115 3119 3117 3115 3108 3105 3108 3104 3108 3115 3118 3118 3117 3118 3116 3138 3145 3149 3150 3155 3159 3162 3166 3170 3176 3182 3187 3192 3197 3202 3207 3210 3214 3217 3220 3223 3226 3227
3103 3101 3102 3104 3107 3111 3111 3111 3115 3113 3108 3101 3101 3100 3103 3111 3113 3114 3116 3117 3121 3124 3143 3146 3152 3154 3157 3159 3162 3166 3171 3178 3182 3188 3193 3197 3203 3207 3210 3214 3218 3221 3225 3227
3106 3104 3100 3102 3104 3105 3108 3111 3111 3111 3108 3101 3098 3096 3095 3102 3109 3113 3111 3112 3111 3115 3129 3131 3147 3151 3154 3157 3160 3163 3167 3172 3178 3183 3188 3193 3198 3203 3207 3211 3215 3218 3223 3225
3107 3107 3101 3102 3102 3104 3106 3105 3105 3105 3105 3101 3099 3095 3096 3099 3100 3107 3106 3110 3114 3112 3116 3121 3125 3146 3148 3152 3155 3158 3162 3167 3172 3176 3182 3187 3192 3197 3202 3206 3211 3215 3219 3223
3107 3104 3102 3100 3101 3102 3103 3102 3103 3102 3102 3097 3098 3094 3091 3096 3099 3100 3108 3106 3110 3105 3111 3121 3118 3125 3138 3143 3148 3152 3156 3161 3166 3171 3176 3182 3187 3192 3196 3200 3206 3210 3214 3218
3105 3105 3100 3098 3100 3099 3097 3098 3099 3099 3099 3093 3093 3093 3087 3098 3100 3099 3104 3109 3113 3112 3114 3111 3108 3113 3129 3136 3140 3145 3150 3157 3161 3166 3170 3175 3181 3185 3189 3194 3199 3205 3210 3214
3101 3103 3103 3098 3093 3098 3095 3094 3097 3097 3094 3093 3089 3094 3090 3099 3101 3100 3102 3107 3111 3114 3113 3116 3117 3128 3121 3134 3136 3138 3143 3150 3156 3160 3165 3170 3175 3180 3185 3189 3194 3198 3204 3209
3099 3098 3099 3096 3093 3095 3093 3093 3092 3092 3091 3090 3090 3092 3088 3097 3089 3096 3098 3102 3108 3111 3115 3120 3124 3116 3096 3128 3131 3134 3138 3143 3149 3154 3159 3165 3170 3175 3179 3184 3188 3193 3198 3203
3095 3094 3094 3090 3091 3091 3090 3089 3089 3089 3087 3087 3087 3086 3086 3091 3092 3092 3095 3095 3098 3102 3106 3108 3112 3120 3121 3123 3127 3131 3133 3137 3143 3148 3153 3159 3165 3169 3173 3178 3182 3187 3192 3197
3092 3091 3090 3087 3087 3087 3083 3084 3085 3085 3085 3087 3083 3084 3087 3091 3094 3089 3090 3093 3088 3095 3095 3097 3101 3110 3111 3119 3120 3129 3132 3134 3138 3143 3148 3155 3160 3164 3168 3173 3177 3180 3186 3191
3086 3087 3087 3085 3086 3083 3077 3079 3080 3080 3080 3082 3082 3081 3081 3086 3093 3092 3091 3089 3088 3085 3087 3092 3097 3098 3104 3100 3083 3123 3128 3131 3133 3138 3143 3149 3155 3159 3163 3166 3170 3175 3179 3184
3080 3082 3082 3083 3080 3080 3075 3076 3074 3073 3072 3080 3077 3075 3077 3082 3087 3088 3083 3082 3083 3089 3084 3088 3090 3094 3097 3108 3099 3114 3123 3126 3129 3132 3137 3143 3149 3154 3158 3161 3165 3169 3173 3177
3074 3075 3075 3077 3075 3073 3070 3068 3069 3071 3071 3067 3067 3070 3073 3070 3073 3076 3080 3079 3075 3083 3082 3085 3089 3095 3098 3102 3108 3110 3113 3118 3122 3128 3133 3138 3142 3147 3152 3157 3161 3164 3168 3172
3069 3069 3067 3070 3072 3069 3068 3067 3067 3069 3069 3064 3064 3066 3065 3066 3068 3070 3077 3077 3077 3080 3080 3084 3085 3089 3092 3095 3096 3102 3108 3110 3117 3123 3128 3132 3137 3141 3146 3151 3155 3159 3163 3165
3068 3066 3065 3068 3069 3066 3061 3062 3065 3062 3060 3060 3060 3060 3059 3060 3059 3060 3060 3063 3070 3076 3080 3081 3082 3085 3088 3090 3092 3099 3101 3109 3112 3114 3120 3124 3129 3134 3139 3143 3149 3153 3156 3159
3068 3065 3063 3064 3061 3059 3058 3057 3058 3056 3058 3058 3056 3055 3055 3054 3056 3057 3065 3066 3070 3072 3074 3076 3079 3080 3083 3085 3087 3091 3096 3100 3106 3108 3113 3118 3122 3127 3131 3135 3140 3145 3149 3152
3064 3062 3060 3058 3058 3051 3051 3052 3050 3051 3051 3051 3050 3049 3048 3047 3051 3051 3050 3061 3061 3062 3065 3067 3071 3074 3076 3079 3081 3085 3090 3095 3098 3101 3106 3112 3115 3119 3123 3127 3131 3136 3140 3144
3066 3061 3055 3051 3051 3049 3047 3045 3042 3044 3044 3043 3042 3041 3039 3041 3045 3047 3048 3051 3056 3058 3057 3060 3063 3065 3068 3071 3075 3079 3082 3086 3091 3095 3098 3103 3108 3111 3114 3118 3122 3127 3131 3136
3065 3061 3056 3051 3048 3045 3042 3038 3036 3037 3035 3034 3035 3035 3035 3037 3038 3041 3044 3046 3047 3049 3050 3051 3054 3057 3060 3063 3066 3071 3074 3079 3082 3087 3091 3095 3100 3102 3105 3109 3113 3118 3122 3127